Theta_e
310 310 310 310 309 309 308 308 307 306 306 305 305 304 303 303 302 302 302 303 303 302 303 304 306 307 306 306 305 305 305 305 306 305 305 305 304 304 302 301 300 300 300 300 300 298 297 296 297 297 297 292
308 308 307 307 307 307 307 306 306 306 305 304 303 302 301 300 300 300 300 301 301 301 300 301 302 304 305 305 304 304 303 303 304 304 304 304 303 302 301 300 299 298 298 299 298 297 296 295 296 297 298 290
305 306 305 305 305 304 305 305 305 305 305 304 302 301 300 299 298 298 298 298 298 298 298 298 300 300 303 304 303 302 302 301 302 303 302 302 302 301 300 298 297 297 297 297 297 296 295 295 295 297 297 289
301 305 305 305 305 305 304 304 303 303 303 303 302 302 301 300 299 297 296 299 297 297 297 296 296 298 301 302 302 301 300 300 300 301 301 301 300 299 298 297 297 296 296 297 296 296 295 295 297 293 288 288
301 303 306 304 304 304 305 304 304 305 304 302 303 302 301 302 299 297 297 296 296 298 296 297 296 296 298 299 300 300 299 298 298 299 300 299 298 298 297 296 296 296 296 297 296 295 295 296 293 289 288 288
303 302 304 302 302 301 303 304 302 301 299 305 300 304 301 299 299 298 296 296 300 295 297 296 297 296 296 298 299 299 298 297 297 298 298 298 298 297 297 297 293 294 297 297 296 295 295 292 288 288 288 287
302 299 298 300 299 301 301 302 299 297 297 298 299 300 299 297 296 297 295 295 296 295 298 298 299 297 298 298 298 298 297 296 297 298 298 297 297 297 296 293 291 290 290 291 297 296 293 288 287 288 288 288
298 298 297 297 297 296 297 297 299 298 297 297 298 298 296 296 297 296 294 302 303 300 295 294 300 299 298 297 297 297 297 297 297 299 299 298 297 298 295 289 288 288 287 287 288 287 286 286 287 287 287 286
294 295 294 296 296 296 295 297 296 296 297 297 296 296 295 296 295 296 295 295 294 293 294 293 294 294 293 292 291 296 292 292 294 296 292 293 296 292 291 290 288 288 287 287 287 285 286 286 285 285 287 286
294 294 294 295 294 295 295 298 295 296 296 296 295 296 294 295 295 295 295 294 293 293 293 293 292 292 292 292 292 295 291 290 291 290 290 291 290 289 288 289 288 288 288 286 285 285 285 285 285 284 284 285
294 295 294 293 294 295 295 295 295 294 294 295 294 294 294 293 292 293 292 292 292 293 292 292 291 290 290 291 290 291 290 290 290 289 289 289 289 288 288 288 288 288 288 286 286 286 285 285 285 284 285 285
294 294 295 296 295 294 296 294 293 293 294 295 293 294 294 294 292 291 290 292 291 291 291 292 291 290 290 290 290 290 290 289 289 289 288 289 288 288 287 287 288 287 288 287 287 286 286 285 284 284 284 284
293 294 294 293 292 292 298 293 292 292 293 292 292 293 293 293 291 290 290 290 290 290 291 291 291 290 290 290 290 290 289 289 288 288 288 288 287 287 287 287 287 287 287 286 285 285 285 285 285 284 285 284
293 293 292 292 292 292 295 291 292 292 291 291 291 290 291 292 291 290 289 289 289 289 289 289 290 290 290 289 289 289 289 289 289 288 287 287 288 287 287 287 288 287 286 286 286 285 285 285 285 284 284 284
290 290 290 290 289 290 290 290 290 289 289 289 290 290 290 290 291 290 289 289 289 289 289 289 289 289 290 288 289 290 289 289 289 288 287 288 287 287 287 287 287 288 287 286 286 286 286 286 286 285 285 284
290 289 290 290 289 289 290 290 289 288 289 290 289 290 290 289 289 291 288 289 289 289 288 288 288 289 289 289 288 290 289 289 289 288 289 289 289 288 288 288 287 288 286 286 286 286 286 285 286 284 285 285
289 290 290 289 289 290 292 289 289 289 289 289 290 290 290 289 289 289 288 287 288 290 287 287 288 288 289 289 289 289 289 289 289 288 287 288 288 287 287 287 287 289 288 286 286 286 286 286 285 285 284 285
288 289 289 289 288 290 289 288 287 289 288 289 289 288 289 288 288 288 287 288 287 287 286 287 287 287 287 288 288 288 288 287 287 287 287 287 287 289 288 285 286 285 286 285 285 286 286 285 285 285 285 284
288 288 288 287 287 288 288 288 287 287 288 287 287 287 286 288 288 288 288 288 287 286 286 286 286 286 286 287 287 286 286 286 286 286 286 287 286 286 285 285 286 286 286 285 286 285 286 286 286 285 284 284
287 287 287 286 289 287 287 286 287 286 287 286 286 286 286 287 287 288 287 287 286 285 285 285 285 285 286 286 286 285 285 286 285 285 286 286 286 284 284 286 285 285 285 285 285 286 286 285 287 285 284 285
285 286 286 286 286 287 286 285 285 285 286 285 285 284 284 285 287 285 285 285 285 284 284 284 284 284 285 285 284 283 284 284 285 285 286 285 286 285 283 284 284 284 284 285 285 285 285 285 286 285 284 285
284 284 285 284 285 286 285 285 285 284 284 284 283 284 284 285 285 284 283 282 283 282 283 283 282 283 283 283 283 282 282 283 284 284 284 283 284 284 283 282 283 283 284 285 285 285 285 285 285 285 285 285
283 283 283 283 284 283 284 283 283 283 282 283 282 282 284 284 283 282 281 281 281 280 281 280 281 281 281 281 280 280 281 281 282 282 281 281 282 283 283 282 283 283 284 284 284 284 284 285 285 285 286 286
281 281 281 280 281 281 282 282 283 283 282 282 281 282 282 282 281 280 280 280 280 279 280 279 279 280 280 280 279 278 278 278 279 279 279 280 281 281 282 283 283 283 282 282 282 283 284 284 285 285 286 286
279 278 279 278 278 278 279 281 282 281 281 281 280 280 280 280 279 279 279 280 279 278 279 279 279 279 279 278 279 278 278 279 279 280 280 279 280 280 279 279 281 281 282 280 279 281 281 282 283 285 286 285
278 278 278 277 277 278 278 278 279 278 279 279 279 279 279 278 278 278 278 279 278 279 278 277 278 278 277 276 276 277 278 278 280 278 278 278 277 278 278 277 279 280 280 278 277 277 278 278 281 283 283 283
277 277 278 277 276 277 277 278 279 279 279 278 278 278 278 278 278 278 278 278 279 278 278 277 277 277 276 275 276 275 275 276 276 277 277 277 277 276 278 278 280 279 279 276 278 278 277 275 276 279 279 280
277 277 278 278 277 277 277 276 278 278 278 277 277 277 278 277 277 278 278 278 278 278 278 278 276 276 275 274 275 275 274 274 274 275 276 277 277 277 274 275 276 280 279 278 277 272 275 275 276 273 274 277
277 277 276 276 276 277 276 276 276 275 275 276 276 276 276 276 277 278 277 278 277 277 277 277 276 275 274 273 274 274 274 273 274 275 275 275 275 274 273 273 275 277 278 278 279 276 275 272 270 271 275 277
276 275 274 274 273 272 273 272 273 273 273 273 273 273 275 275 276 277 277 277 276 276 277 275 274 274 273 273 273 274 273 273 274 274 273 273 273 273 274 273 273 273 277 278 279 279 278 277 273 274 275 276
275 274 274 273 273 273 272 271 273 274 274 273 273 274 273 274 275 276 275 275 275 275 275 275 273 273 272 272 272 273 273 272 273 273 273 274 273 273 274 273 271 272 273 275 275 277 277 277 278 277 276 273
Wind_Speed
12 12 11 11 11 11 10 10 10 10 9 10 10 10 10 9 9 8 8 8 8 8 8 8 9 8 8 8 8 8 8 9 8 7 7 7 7 8 8 8 9 9 8 7 7 7 8 9 9 7 5 2
12 11 11 11 10 10 9 8 8 8 8 9 9 9 9 8 7 7 7 6 6 7 8 8 8 8 8 7 7 7 8 8 8 7 7 7 7 7 8 9 9 8 8 7 7 7 7 8 8 7 7 1
6 11 10 10 9 8 8 7 6 6 6 6 6 6 5 4 3 3 4 4 4 5 6 7 7 7 7 7 6 6 7 7 8 7 7 7 7 8 8 9 9 8 7 7 7 8 8 8 7 8 5 3
5 7 9 8 8 7 6 5 4 4 2 3 3 3 2 1 0 2 1 4 3 3 4 4 4 5 6 7 6 6 6 7 8 8 7 7 8 8 9 10 10 7 6 7 8 9 9 8 7 4 4 4
5 5 8 6 6 7 6 4 3 1 2 2 4 2 3 3 2 3 3 2 3 3 2 4 0 3 5 7 6 6 6 7 8 9 8 7 8 9 10 10 10 8 6 6 5 8 9 8 6 1 3 3
5 3 5 5 4 3 4 4 4 3 3 5 2 4 2 3 4 5 1 3 4 2 3 2 2 2 5 6 7 6 8 8 9 9 8 8 8 9 10 9 6 4 7 7 5 5 7 5 3 5 4 4
6 5 3 4 4 3 4 5 3 2 1 0 1 3 1 3 4 5 4 3 3 0 4 2 6 5 6 6 7 7 7 9 8 9 8 7 8 8 8 6 6 1 3 3 7 6 3 3 3 3 4 4
4 3 2 2 3 3 4 5 4 3 2 4 5 5 4 4 4 4 3 4 4 0 1 3 5 6 7 7 6 7 6 8 10 10 9 8 8 7 4 4 3 2 3 3 2 3 3 1 1 2 3 4
6 6 2 0 1 3 3 4 2 3 4 5 3 2 3 4 3 3 4 0 2 2 3 1 3 4 4 3 3 6 4 6 5 6 6 4 6 6 4 2 1 1 2 3 3 3 2 1 2 3 3 4
3 1 2 5 5 1 4 2 2 5 6 5 4 4 2 4 2 3 3 0 1 2 4 3 3 2 1 1 1 6 6 4 2 2 5 4 3 3 2 1 1 2 2 2 3 2 3 1 2 3 4 4
3 5 6 5 5 6 5 4 6 6 6 6 5 6 6 7 7 4 4 5 3 2 3 4 4 5 5 5 4 3 3 1 1 3 4 3 2 2 4 4 4 4 4 4 4 4 3 2 2 2 5 5
6 5 4 5 5 6 5 6 6 4 4 6 7 6 7 7 7 7 7 6 6 5 5 5 4 3 4 4 5 4 2 3 2 3 4 3 3 3 3 3 3 4 4 4 4 4 4 4 2 3 4 4
6 7 7 6 5 6 6 6 6 7 7 7 7 6 6 6 7 7 7 6 6 7 7 7 6 4 5 3 3 4 2 2 3 2 3 4 4 4 4 4 5 4 3 3 3 4 3 3 3 4 4 4
7 6 7 7 7 7 6 6 7 6 7 7 7 6 5 6 6 6 6 6 6 6 7 7 7 6 6 7 6 5 3 1 1 3 3 4 4 4 4 4 6 4 4 4 4 4 4 4 3 3 4 4
8 7 7 7 6 6 7 6 7 6 6 6 6 5 5 5 5 5 5 6 5 5 5 6 6 5 6 7 6 6 4 4 4 4 5 6 6 5 4 4 6 6 6 5 4 4 4 6 4 4 4 5
7 7 6 5 5 5 5 5 6 5 6 4 6 5 5 6 6 5 5 5 6 5 6 6 6 5 5 6 5 5 5 6 5 5 6 7 6 6 5 6 6 6 5 6 5 4 4 4 5 5 5 5
7 7 7 7 7 7 6 6 6 6 6 6 5 5 6 6 6 4 5 6 6 6 6 7 6 6 5 5 6 6 6 6 6 5 5 5 5 6 5 4 6 5 5 5 5 4 5 5 4 4 4 5
6 6 6 6 6 7 7 7 7 6 7 7 7 7 6 7 6 4 6 5 5 6 6 7 6 5 6 5 5 6 6 6 6 7 7 7 7 6 5 5 5 5 6 6 5 5 5 4 4 4 4 4
8 6 6 6 6 6 6 7 7 7 7 7 7 7 6 6 6 4 6 5 6 6 6 6 6 6 6 6 5 6 6 6 6 6 6 6 6 5 6 6 6 5 6 5 6 4 5 5 5 4 4 4
11 10 9 7 6 6 5 6 6 6 6 6 6 6 6 6 6 5 6 6 6 6 6 6 6 6 6 6 6 6 6 5 6 6 6 6 6 6 5 5 6 6 6 6 7 7 7 7 5 4 4 5
10 11 11 10 9 9 6 6 6 6 6 6 6 6 6 5 6 7 7 7 6 6 7 6 6 7 6 5 6 6 6 6 6 6 6 5 6 6 6 7 7 7 7 6 5 5 5 6 5 5 4 5
9 9 9 9 8 8 8 8 5 6 6 6 6 6 5 5 6 6 7 7 6 6 7 6 6 6 6 6 6 6 6 6 7 6 6 7 6 7 7 7 6 6 6 7 7 7 7 7 7 7 7 7
9 9 8 8 8 7 7 6 6 5 6 6 6 6 5 5 5 6 6 6 6 6 6 6 7 6 6 6 6 6 6 6 6 7 8 7 7 6 6 6 6 7 7 7 7 6 7 6 6 6 7 7
9 8 9 10 8 7 7 6 6 5 5 5 6 6 6 5 5 6 6 6 6 6 6 6 6 6 6 6 6 6 6 6 6 7 7 6 6 7 6 6 7 7 7 6 6 7 7 8 9 10 10 10
10 10 8 8 9 8 9 8 7 6 6 6 6 7 7 6 6 6 6 5 5 6 6 5 6 6 6 6 7 7 6 7 7 6 6 6 5 6 6 5 6 6 7 8 8 6 8 6 5 8 9 10
8 8 6 7 8 8 8 8 8 7 5 6 6 7 6 6 6 6 6 6 5 5 5 5 5 6 6 7 7 7 8 8 8 8 7 6 6 4 6 5 5 7 7 6 6 8 7 5 8 12 11 10
6 7 6 6 7 7 6 6 6 6 6 6 6 6 5 5 5 5 5 6 6 6 5 5 5 6 7 7 8 7 7 7 7 7 7 8 6 6 4 5 5 6 5 5 7 7 8 6 6 4 7 6
6 6 7 6 6 7 6 7 7 6 6 5 6 6 6 5 6 6 4 5 5 5 5 5 6 6 7 8 8 8 7 8 8 8 7 7 7 7 7 6 6 7 8 6 7 5 3 5 7 10 2 5
6 6 5 5 5 4 4 4 4 3 4 5 6 6 6 6 7 5 5 5 5 5 5 4 5 6 6 7 8 7 7 7 8 8 6 8 8 8 7 8 7 6 7 8 7 5 5 4 2 3 4 10
6 5 6 6 6 6 6 6 5 5 7 6 6 7 7 7 7 5 5 5 4 5 5 4 5 6 7 7 7 7 7 7 7 7 8 8 7 8 8 8 8 7 6 7 7 7 6 6 6 7 7 6
6 5 5 6 6 5 5 6 5 4 5 5 6 6 7 7 6 5 6 7 6 5 6 4 5 6 7 7 7 8 7 7 7 7 8 8 7 7 8 8 8 8 7 7 7 7 8 8 6 5 5 5
Wind_Direction
114 113 107 97 92 87 87 86 86 84 82 80 76 71 66 61 57 55 51 49 47 45 39 30 27 29 33 27 20 18 15 12 19 17 15 15 14 10 4 1 1 3 7 14 17 17 5 354 352 357 7 317
105 100 94 90 87 83 80 81 80 81 77 76 75 73 67 59 55 57 55 52 49 45 41 28 19 14 20 17 15 9 6 3 3 6 4 6 2 357 354 348 346 349 352 0 6 2 359 342 336 337 334 50
99 98 94 91 86 84 79 75 77 80 81 72 69 77 68 65 71 69 84 75 57 55 46 28 18 3 356 6 2 2 355 350 349 350 354 351 351 344 340 335 331 333 343 353 357 350 341 330 322 315 327 23
96 97 99 96 95 89 85 80 71 63 82 95 110 108 115 166 205 190 191 147 105 92 76 46 17 343 345 342 348 345 345 338 334 336 337 343 336 334 329 326 323 319 324 342 349 342 331 322 328 317 21 347
110 116 120 121 128 124 125 127 116 153 188 217 175 175 208 224 246 221 203 183 151 153 120 126 359 332 332 326 327 331 328 327 325 322 327 327 326 321 318 317 313 296 301 317 323 338 328 324 321 349 12 346
116 144 162 151 147 156 154 164 187 201 228 199 171 201 196 228 229 231 169 127 79 40 120 139 190 262 298 304 307 312 317 311 312 313 312 317 312 313 310 302 298 266 277 287 289 287 314 320 297 23 348 316
132 154 196 140 146 152 165 158 175 279 263 84 323 157 244 312 316 33 20 79 88 137 290 217 204 238 250 272 292 301 297 298 286 290 303 295 295 305 294 291 269 266 214 220 266 290 276 267 18 3 321 291
147 143 107 126 138 179 176 172 173 191 50 30 31 23 354 313 23 26 3 116 128 134 284 267 226 231 249 264 262 264 272 277 271 262 278 276 268 285 262 259 299 324 318 300 212 238 263 9 356 315 284 294
49 36 16 110 99 62 35 53 39 92 87 65 35 5 338 0 19 347 312 231 127 232 257 328 179 221 262 259 251 244 249 257 217 238 260 228 239 254 241 216 260 302 303 312 321 321 310 19 343 304 296 288
89 104 355 34 26 38 70 86 58 56 66 66 34 18 352 314 263 240 263 11 38 4 327 311 312 310 256 214 202 186 232 252 16 291 276 268 233 257 288 261 247 243 239 259 289 299 309 279 267 293 292 291
77 49 57 48 32 30 23 43 52 44 65 65 40 15 10 2 348 359 1 18 21 356 351 350 2 358 338 320 293 276 282 306 244 269 272 273 257 274 274 252 231 227 232 222 225 246 250 249 234 265 278 272
60 67 71 59 41 38 29 43 40 57 73 78 59 31 16 12 0 6 4 17 7 352 13 356 341 333 318 309 318 297 298 300 254 257 287 290 284 270 275 277 268 239 227 230 216 222 232 230 225 244 263 276
53 47 45 46 49 40 40 37 36 38 44 50 49 36 20 15 10 358 2 13 4 356 354 345 323 303 279 287 290 293 294 296 310 323 316 306 299 290 274 271 268 265 260 243 243 226 226 218 226 245 252 250
58 52 46 37 34 31 34 36 35 37 46 51 48 34 14 16 14 1 358 12 3 352 344 336 326 330 340 339 317 311 289 272 349 316 311 302 296 306 308 315 302 300 287 274 259 254 235 223 215 231 247 250
44 42 45 43 35 32 31 31 38 36 44 60 63 46 22 18 11 1 2 10 351 339 328 315 308 326 327 317 314 311 324 11 1 336 316 295 288 279 282 283 283 280 274 270 272 264 250 228 213 229 249 257
49 44 39 36 41 35 40 39 36 39 35 49 79 61 38 15 6 355 6 3 346 335 319 307 311 311 306 293 297 327 359 344 329 289 268 262 257 251 239 252 259 268 269 270 265 270 273 246 208 225 233 241
39 33 32 35 23 13 23 33 32 28 35 23 36 64 53 28 1 353 14 355 339 333 323 312 313 309 304 312 355 355 341 329 308 299 293 299 304 305 286 265 253 252 252 248 255 250 251 240 231 223 235 242
48 46 34 30 29 16 15 21 26 23 18 24 26 30 41 31 352 349 17 357 340 338 320 312 316 322 324 358 356 343 332 328 324 319 314 298 290 278 277 289 298 306 298 280 269 267 264 262 247 231 233 237
23 33 41 36 26 27 19 22 22 17 20 20 29 32 17 25 343 4 15 357 353 336 320 324 328 331 334 357 355 345 329 320 309 302 295 296 308 313 321 308 298 289 284 292 292 283 285 275 258 252 239 247
20 16 16 16 24 17 28 30 22 11 23 19 31 32 11 10 341 24 8 1 356 336 332 335 333 326 344 355 352 332 316 313 317 306 309 315 319 318 302 310 307 310 301 297 292 286 274 267 266 256 259 265
22 19 12 7 7 10 13 23 27 5 27 22 26 31 6 2 347 29 6 354 352 342 332 335 334 326 342 352 342 328 324 326 312 318 316 324 337 343 328 322 313 306 302 294 288 295 302 299 295 283 267 260
21 19 14 8 1 3 2 3 16 2 34 30 16 27 1 2 356 26 6 348 345 348 332 337 332 324 343 345 338 330 331 319 315 324 346 338 334 326 316 303 297 298 301 299 295 289 286 287 284 279 275 268
18 17 14 12 358 4 351 354 349 11 26 32 18 11 358 13 1 15 3 343 349 347 337 335 327 336 339 343 340 340 328 327 333 341 335 326 312 302 291 293 295 290 283 283 277 277 271 267 271 270 265 259
13 13 12 4 350 2 350 347 339 8 18 26 19 6 353 14 10 9 354 341 350 343 336 335 332 341 338 343 349 343 340 333 335 319 311 309 305 306 304 299 291 286 289 289 298 298 293 280 272 266 263 259
11 6 4 3 352 355 342 338 342 357 6 15 11 9 357 4 13 2 349 343 351 339 339 337 334 336 339 355 352 342 335 326 318 315 320 313 315 316 314 307 307 314 321 321 305 282 276 283 280 278 266 253
8 3 3 353 337 344 337 337 340 347 357 5 4 1 353 2 359 356 346 340 345 336 335 339 338 344 1 359 344 340 332 324 325 330 330 328 327 314 315 311 314 305 312 310 297 316 308 292 277 266 269 274
0 351 344 348 326 332 329 323 327 330 338 5 351 351 345 358 345 344 340 339 339 340 337 343 355 356 0 355 340 333 324 322 326 326 333 326 321 323 322 312 308 320 336 311 317 309 306 299 328 314 327 288
344 338 326 324 321 317 329 326 323 333 351 348 346 336 340 347 335 329 338 333 337 335 335 356 6 2 358 349 336 325 324 328 330 324 322 322 334 339 335 324 320 326 327 328 332 330 288 311 313 312 265 342
339 332 331 322 311 300 305 309 303 343 334 339 338 333 331 340 326 328 338 328 338 337 334 11 10 11 356 341 328 325 325 324 317 315 321 345 349 344 330 321 313 319 315 304 294 275 312 322 291 248 317 341
343 338 329 336 338 338 342 337 340 347 341 339 341 336 331 325 318 341 332 329 346 342 339 17 21 12 354 336 326 327 321 319 314 329 352 344 339 332 321 310 311 302 299 296 299 291 255 235 255 299 304 320
344 335 329 334 324 320 328 323 318 334 338 332 331 328 329 320 326 339 344 339 350 347 347 16 22 8 351 330 328 323 326 318 328 342 344 330 332 324 320 319 309 309 314 319 316 306 307 305 293 282 290 270